Location: McFarlands Corners
(41.4117°N, 81.3382°W)
Time: 21:20:08
(UTC+00:00)

SR - Pass Details

Date: 21 February 2026
Orbit: 572 x 848 km, 66.7° (Epoch: 8 March)

Event Time Altitude Azimuth Distance (km) Brightness Sun altitude
Rises 10:05:02 0° 244° (WSW) 2,778 - -24.5°
Reaches altitude 10° 10:07:37 10° 260° (W) 1,899 - -24.0°
Maximum altitude 10:10:58 22° 312° (NW) 1,306 - -23.4°
Exits shadow 10:12:50 17° 347° (NNW) 1,536 ? -23.0°
Drops below altitude 10° 10:14:29 10° 5° (N) 1,988 ? -22.7°
Sets 10:17:16 0° 20° (NNE) 2,944 ? -22.2°
